EW4415 Weather Reports


Display with metric or nautical units.
time (UTC)temp
F
wind
direction
speed
MPH
gust
MPH
rain 1hr
in
rain 24hr
in
rain mn
in
humidity
%
barometer
mb
20260831101542 62 124 0.0 7.0 0.02 0.31 0.31 1 1005.1
20260831100056 62 119 0.0 4.0 0.02 0.31 0.31 1 1005.0
20260831094533 62 121 0.0 5.0 0.00 0.28 0.28 1 1005.1
20260831093040 62 327 0.0 6.0 0.00 0.28 0.28 1 1005.2
20260831091524 62 90 0.0 4.0 0.00 0.28 0.28 1 1005.1
20260831090020 62 129 0.0 7.0 0.00 0.28 0.28 1 1005.2
20260831084515 62 62 0.0 5.0 0.00 0.31 0.28 1 1005.3
20260831083011 62 25 0.0 3.0 0.00 0.31 0.28 1 1005.3
20260831081506 61 48 0.0 1.0 0.02 0.31 0.28 1 1005.4
20260831080003 61 147 0.0 4.0 0.06 0.31 0.28 1 1005.6
20260831074558 61 134 0.0 4.0 0.08 0.34 0.28 1 1005.5
20260831073054 61 116 0.0 8.0 0.09 0.34 0.28 1 1005.7
20260831071606 61 146 0.0 5.0 0.11 0.32 0.28 1 1005.6
20260831070045 61 144 0.0 4.0 0.10 0.28 0.23 1 1005.7
20260831064541 61 5 0.0 2.0 0.10 0.28 0.21 1 1005.7
20260831063039 61 89 0.0 2.0 0.13 0.27 0.20 1 1005.8
20260831061534 61 169 0.0 4.0 0.09 0.23 0.17 1 1005.8
20260831060029 61 51 0.0 2.0 0.07 0.19 0.13 1 1005.9
20260831054525 61 132 0.0 2.0 0.06 0.17 0.10 1 1006.0
20260831053040 61 113 0.0 1.0 0.03 0.13 0.07 1 1006.1
20260831051516 61 135 0.0 1.0 0.03 0.13 0.07 1 1006.2
20260831050012 61 162 0.0 0.0 0.02 0.12 0.06 1 1006.3
20260831044511 61 144 0.0 1.0 0.01 0.12 0.05 1 1006.4
20260831043002 61 126 0.0 0.0 0.00 0.11 0.04 1 1006.6
20260831041559 60 126 0.0 0.0 0.00 0.11 0.04 1 1006.7
20260831040055 60 132 0.0 0.0 0.00 0.11 0.04 1 1006.8
20260831034550 60 149 0.0 0.0 0.00 0.11 0.04 1 1006.8
20260831033051 60 150 0.0 0.0 0.00 0.11 0.04 1 1006.9
20260831031541 60 149 0.0 0.0 0.00 0.11 0.04 1 1007.0
20260831030039 60 149 0.0 0.0 0.01 0.11 0.04 1 1007.1
20260831024532 60 150 0.0 0.0 0.01 0.12 0.04 1 1007.3
20260831023035 60 150 0.0 0.0 0.01 0.12 0.04 1 1007.4
20260831021534 60 151 0.0 0.0 0.01 0.12 0.04 1 1007.5
20260831020037 60 68 0.0 0.0 0.00 0.11 0.03 1 1007.6
20260831014515 60 68 0.0 0.0 0.02 0.11 0.03 1 1007.7
20260831013010 60 68 0.0 0.0 0.02 0.11 0.03 1 1007.8
20260831011505 60 63 0.0 0.0 0.02 0.11 0.03 1 1007.9
20260831010003 61 61 0.0 0.0 0.02 0.11 0.03 1 1007.9
20260831004559 60 128 0.0 0.0 0.00 0.09 0.02 1 1008.1
20260831003052 60 131 0.0 1.0 0.01 0.09 0.02 1 1008.1
20260831001550 60 114 0.0 0.0 0.02 0.09 0.02 1 1008.1
20260831000044 60 114 0.0 0.0 0.02 0.09 0.02 1 1008.2
20260830234545 60 114 0.0 0.0 0.02 0.09 0.02 1 1008.4
20260830233038 60 114 0.0 0.0 0.01 0.09 0.01 1 1008.5
20260830231535 59 138 0.0 0.0 0.00 0.08 0.00 1 1008.7
20260830230026 59 102 0.0 0.0 0.00 0.08 0.00 1 1008.7
20260830224522 59 94 0.0 0.0 0.00 0.08 0.00 1 1008.9
20260830223017 59 94 0.0 0.0 0.00 0.08 0.00 1 1008.9
20260830221514 58 94 0.0 0.0 0.00 0.08 0.00 1 1008.9
20260830220009 58 94 0.0 0.0 0.00 0.08 0.00 1 1009.0
20260830214504 58 94 0.0 0.0 0.00 0.08 0.00 1 1009.0
20260830213125 58 94 0.0 0.0 0.00 0.08 0.00 1 1009.1
20260830211559 58 94 0.0 0.0 0.00 0.08 0.00 1 1009.1
20260830210058 58 94 0.0 0.0 0.00 0.08 0.00 1 1009.2
20260830204556 58 94 0.0 0.0 0.00 0.08 0.08 1 1009.3
20260830203055 58 94 0.0 0.0 0.00 0.08 0.08 1 1009.3
20260830201552 58 94 0.0 0.0 0.00 0.08 0.08 1 1009.3
20260830200047 58 94 0.0 0.0 0.00 0.08 0.08 1 1009.3
20260830194543 58 94 0.0 0.0 0.00 0.08 0.08 1 1009.2
20260830193039 58 94 0.0 0.0 0.00 0.08 0.08 1 1009.2
20260830191535 59 90 0.0 0.0 0.00 0.08 0.08 1 1009.1
20260830190032 59 90 0.0 0.0 0.00 0.08 0.08 1 1009.1
20260830184525 60 90 0.0 0.0 0.00 0.08 0.08 1 1009.0
20260830183020 60 90 0.0 0.0 0.00 0.08 0.08 1 1009.0
20260830181516 61 90 0.0 0.0 0.00 0.08 0.08 1 1009.1
20260830180023 62 90 0.0 0.0 0.00 0.08 0.08 1 1009.0
20260830174516 62 66 0.0 0.0 0.00 0.08 0.08 1 1009.0
20260830173011 63 283 0.0 0.0 0.00 0.08 0.08 1 1008.9
20260830171508 63 300 0.0 1.0 0.00 0.08 0.08 1 1008.8
20260830170010 63 39 0.0 0.0 0.00 0.08 0.08 1 1008.7
20260830164502 63 297 0.0 1.0 0.00 0.08 0.08 1 1008.7
20260830163011 64 340 0.0 0.0 0.00 0.08 0.08 1 1008.7
20260830161502 64 184 0.0 2.0 0.00 0.08 0.08 1 1008.5
20260830160003 64 360 0.0 0.0 0.00 0.08 0.08 1 1008.5
20260830154602 64 40 0.0 0.0 0.00 0.08 0.08 1 1008.6
20260830153101 65 316 0.0 1.0 0.00 0.08 0.08 1 1008.6
20260830151555 65 108 0.0 0.0 0.00 0.08 0.08 1 1008.6
20260830150048 65 127 0.0 1.0 0.00 0.08 0.08 1 1008.4
20260830144542 66 360 0.0 6.0 0.00 0.08 0.08 1 1008.5
20260830143044 66 314 0.0 2.0 0.00 0.08 0.08 1 1008.5
20260830141534 65 360 0.0 2.0 0.00 0.08 0.08 1 1008.5
20260830140029 66 355 0.0 0.0 0.00 0.08 0.08 1 1008.4
20260830134532 66 300 0.0 0.0 0.00 0.08 0.08 1 1008.4
20260830133021 66 291 0.0 4.0 0.00 0.08 0.08 1 1008.4
20260830131516 66 61 0.0 0.0 0.00 0.08 0.08 1 1008.2
20260830130012 66 332 0.0 0.0 0.00 0.08 0.08 1 1008.2
20260830124508 66 295 0.0 0.0 0.00 0.08 0.08 1 1008.2
20260830123003 66 69 0.0 0.0 0.00 0.08 0.08 1 1008.3
20260830121601 66 72 0.0 0.0 0.00 0.08 0.08 1 1008.2
20260830120057 65 126 0.0 0.0 0.00 0.08 0.08 1 1008.4
20260830114609 64 51 0.0 0.0 0.00 0.08 0.08 1 1008.5
20260830113049 64 256 0.0 0.0 0.00 0.08 0.08 1 1008.6
20260830111542 63 115 0.0 0.0 0.00 0.08 0.08 1 1008.6
20260830110037 63 130 0.0 1.0 0.00 0.08 0.08 1 1008.6
20260830104535 63 292 0.0 0.0 0.00 0.08 0.08 1 1008.5
20260830103029 63 291 0.0 0.0 0.00 0.08 0.08 1 1008.4